�N����,����,�~����,�C��,���x,�C��,����,���ϕ���,�ő�u�ԕ���,�ő厞����,���˗�,�I�_���x,�n�����x,�ő啗���N��,DTYPE
"18/10/27","00:10",0.2,16.3,95.3,1007.6,318.5,1.2,2.1,323.4,0.00,15.6,18.1,"00:00:40",1
"18/10/27","00:20",0.0,16.1,95.5,1007.6,350.0,1.3,2.1,352.5,0.00,15.4,18.2,"00:15:36",1
"18/10/27","00:30",0.2,16.1,95.6,1007.4,334.9,1.0,2.6,332.2,0.00,15.4,18.1,"00:25:04",1
"18/10/27","00:40",0.4,15.9,95.3,1007.1,296.8,1.2,4.0,316.9,0.00,15.2,18.2,"00:37:36",1
"18/10/27","00:50",0.0,16.1,95.4,1006.9,9.7,1.2,2.6,344.1,0.00,15.4,18.2,"00:46:16",1
"18/10/27","01:00",0.0,16.1,95.2,1006.9,334.1,1.3,2.6,351.6,0.00,15.4,18.0,"00:51:04",1
"18/10/27","01:10",0.2,16.0,95.4,1006.9,320.6,1.3,2.6,330.4,0.00,15.3,18.0,"01:04:24",1
"18/10/27","01:20",0.0,16.0,95.4,1006.7,314.7,0.8,1.4,337.4,0.00,15.3,18.0,"01:18:24",1
"18/10/27","01:30",0.0,16.0,95.4,1006.4,317.6,1.1,2.2,311.8,0.00,15.3,17.9,"01:29:36",1
"18/10/27","01:40",0.0,15.9,95.7,1006.4,299.1,1.1,2.2,341.6,0.00,15.3,18.0,"01:39:52",1
"18/10/27","01:50",0.0,15.8,95.7,1006.4,329.9,1.1,2.0,344.1,0.00,15.2,17.9,"01:40:16",1
"18/10/27","02:00",0.0,15.8,95.8,1006.2,311.5,1.1,2.5,331.1,0.00,15.2,17.9,"01:59:28",1
"18/10/27","02:10",0.2,15.8,95.8,1006.0,288.6,0.8,1.4,295.0,0.00,15.2,18.0,"02:00:24",1
"18/10/27","02:20",0.2,15.7,96.0,1006.2,279.1,0.7,1.4,273.0,0.00,15.1,17.9,"02:15:52",1
"18/10/27","02:30",0.2,15.7,96.1,1005.7,320.3,0.7,1.7,330.6,0.00,15.1,17.9,"02:22:00",1
"18/10/27","02:40",0.0,15.7,96.1,1006.0,277.8,0.3,1.2,326.7,0.00,15.1,17.8,"02:35:20",1
"18/10/27","02:50",0.0,15.7,96.2,1005.5,277.2,0.7,1.3,264.8,0.00,15.1,17.9,"02:46:08",1
"18/10/27","03:00",0.2,15.7,96.3,1006.0,303.8,0.6,1.4,304.0,0.00,15.2,17.8,"02:55:04",1
"18/10/27","03:10",0.0,15.7,96.3,1005.7,313.6,0.7,1.2,312.5,0.00,15.2,17.7,"03:07:44",1
"18/10/27","03:20",0.0,15.8,96.3,1005.2,341.3,1.0,1.6,319.4,0.00,15.3,17.5,"03:11:04",1
"18/10/27","03:30",0.2,15.7,96.4,1005.2,319.8,0.7,1.6,336.3,0.00,15.2,17.9,"03:20:08",1
"18/10/27","03:40",0.2,15.7,96.5,1005.0,304.2,0.6,1.2,322.4,0.00,15.2,17.8,"03:33:52",1
"18/10/27","03:50",0.0,15.7,96.6,1005.0,310.1,0.8,1.3,321.0,0.00,15.2,17.8,"03:48:34",1
"18/10/27","04:00",0.0,15.6,96.6,1004.3,287.9,0.8,1.3,327.6,0.00,15.1,17.8,"03:50:32",1
"18/10/27","04:10",0.0,15.6,96.8,1004.8,284.6,0.8,1.3,329.0,0.00,15.1,17.8,"04:06:08",1
"18/10/27","04:20",0.0,15.7,96.9,1004.8,257.3,0.7,1.2,249.6,0.00,15.2,17.6,"04:17:52",1
"18/10/27","04:30",0.4,15.7,96.8,1004.8,311.7,0.8,1.6,333.8,0.00,15.2,17.6,"04:26:32",1
"18/10/27","04:40",0.0,15.7,96.8,1004.3,324.5,1.2,2.1,350.5,0.00,15.2,17.8,"04:32:08",1
"18/10/27","04:50",0.0,15.7,96.9,1004.8,273.7,0.7,1.1,270.8,0.00,15.2,17.7,"04:48:08",1
"18/10/27","05:00",0.2,15.7,97.0,1004.5,305.4,0.6,1.6,273.5,0.00,15.3,17.6,"04:50:56",1
"18/10/27","05:10",0.0,15.8,96.9,1004.5,259.4,0.8,1.3,250.3,0.00,15.3,17.6,"05:03:04",1
"18/10/27","05:20",0.0,15.7,97.0,1005.0,295.7,0.7,1.3,312.3,0.00,15.3,17.6,"05:12:56",1
"18/10/27","05:30",0.0,15.8,97.0,1004.8,294.1,0.7,1.4,327.8,0.00,15.4,17.6,"05:26:16",1
"18/10/27","05:40",0.0,15.9,97.2,1005.0,291.0,0.3,0.8,301.5,0.00,15.5,17.7,"05:30:24",1
"18/10/27","05:50",0.0,15.9,97.1,1005.0,284.7,0.2,1.2,301.5,0.00,15.5,17.6,"05:49:52",1
"18/10/27","06:00",0.2,15.9,97.1,1005.2,319.8,1.2,1.7,322.4,0.00,15.5,17.6,"05:50:56",1
"18/10/27","06:10",0.4,15.9,97.1,1005.2,320.2,1.0,2.2,339.9,0.00,15.5,17.7,"06:06:16",1
"18/10/27","06:20",0.2,15.8,97.2,1005.2,327.0,1.1,1.7,333.8,0.00,15.4,17.7,"06:14:16",1
"18/10/27","06:30",0.0,15.9,97.2,1004.8,354.8,0.3,0.9,4.6,0.00,15.5,17.6,"06:26:16",1
"18/10/27","06:40",0.0,15.8,97.4,1005.2,249.4,0.8,1.6,225.2,0.00,15.4,17.7,"06:35:44",1
"18/10/27","06:50",0.0,15.9,97.4,1005.0,220.5,0.6,1.8,239.0,0.00,15.5,17.6,"06:41:52",1
"18/10/27","07:00",0.0,15.9,97.4,1005.2,306.6,0.6,1.0,335.6,0.00,15.5,17.7,"06:59:52",1
"18/10/27","07:10",0.0,16.0,97.4,1005.7,341.2,0.7,1.3,350.4,0.00,15.6,17.7,"07:05:36",1
"18/10/27","07:20",0.0,16.1,97.4,1005.2,255.0,0.6,1.2,244.1,0.00,15.7,17.6,"07:17:04",1
"18/10/27","07:30",0.0,16.3,97.4,1005.2,60.3,0.3,1.1,358.9,0.00,15.9,17.6,"07:29:36",1
"18/10/27","07:40",0.0,16.3,97.4,1005.5,259.2,0.3,0.9,27.2,0.01,15.9,17.7,"07:30:08",1
"18/10/27","07:50",0.0,16.4,97.0,1005.7,259.5,1.0,1.7,239.7,0.01,16.0,17.6,"07:49:36",1
"18/10/27","08:00",0.0,16.5,97.5,1005.7,243.9,0.8,1.6,233.5,0.04,16.1,17.7,"07:50:32",1
"18/10/27","08:10",0.0,16.6,97.0,1006.0,274.2,1.0,1.7,257.8,0.03,16.2,17.7,"08:09:28",1
"18/10/27","08:20",0.0,16.6,97.0,1005.7,245.0,0.7,1.6,246.6,0.04,16.2,17.8,"08:16:24",1
"18/10/27","08:30",0.0,16.8,97.1,1006.0,257.9,0.7,1.4,243.9,0.05,16.4,17.7,"08:22:56",1
"18/10/27","08:40",0.0,16.8,96.6,1006.0,231.3,0.6,1.3,247.0,0.05,16.3,17.7,"08:30:08",1
"18/10/27","08:50",0.0,16.9,97.1,1005.7,296.7,0.6,1.7,341.0,0.07,16.5,17.8,"08:49:12",1
"18/10/27","09:00",0.0,17.1,96.5,1006.0,318.9,0.8,1.7,310.4,0.07,16.6,18.1,"08:54:32",1
"18/10/27","09:10",0.0,17.2,96.6,1006.0,130.4,0.3,1.1,138.9,0.08,16.7,18.0,"09:07:28",1
"18/10/27","09:20",0.0,17.4,96.8,1005.7,170.4,0.5,1.2,146.9,0.08,16.9,18.2,"09:15:04",1
"18/10/27","09:30",0.0,17.4,96.4,1006.0,162.1,0.5,1.3,100.9,0.06,16.9,18.1,"09:27:44",1
"18/10/27","09:40",0.0,17.2,96.1,1006.0,212.3,0.5,1.4,153.1,0.05,16.6,18.1,"09:33:12",1
"18/10/27","09:50",0.0,17.5,96.4,1005.5,149.6,0.6,1.3,126.7,0.06,17.0,18.1,"09:46:08",1
"18/10/27","10:00",0.0,17.7,95.9,1005.7,182.8,0.3,1.3,149.9,0.05,17.1,18.2,"09:54:48",1
"18/10/27","10:10",0.0,17.7,95.7,1005.7,251.1,0.7,1.8,237.5,0.05,17.0,18.2,"10:07:12",1
"18/10/27","10:20",0.0,18.0,94.9,1006.0,259.5,0.5,1.2,244.5,0.07,17.2,18.3,"10:12:48",1
"18/10/27","10:30",0.0,17.9,94.9,1005.5,256.9,0.3,1.1,240.3,0.09,17.1,18.4,"10:25:12",1
"18/10/27","10:40",0.0,18.6,94.3,1005.7,295.2,0.6,1.6,317.4,0.11,17.7,18.5,"10:33:28",1
"18/10/27","10:50",0.0,18.5,92.8,1005.2,68.1,0.6,2.0,39.6,0.08,17.4,18.5,"10:44:40",1
"18/10/27","11:00",0.0,18.9,91.4,1005.0,23.1,0.6,1.2,43.0,0.18,17.5,18.6,"10:51:52",1
"18/10/27","11:10",0.0,19.5,90.6,1005.2,270.8,0.6,1.7,205.2,0.25,18.0,18.7,"11:00:56",1
"18/10/27","11:20",0.0,20.6,73.6,1005.5,345.8,1.7,4.7,190.5,0.50,15.8,18.7,"11:19:36",1
"18/10/27","11:30",0.0,20.9,74.0,1005.2,100.1,1.2,2.8,233.4,0.50,16.1,19.1,"11:20:02",1
"18/10/27","11:40",0.0,21.1,52.9,1006.0,288.8,2.0,4.8,243.2,0.50,11.2,19.3,"11:39:04",1
"18/10/27","11:50",0.0,21.4,52.5,1005.5,282.5,2.5,6.0,330.9,0.50,11.3,19.6,"11:42:48",1
"18/10/27","12:00",0.0,21.8,49.9,1004.8,272.3,2.5,9.5,222.9,0.51,10.9,19.7,"11:54:00",1
"18/10/27","12:10",0.0,22.1,49.1,1004.8,255.9,2.7,8.3,228.0,0.54,11.0,19.7,"12:03:52",1
"18/10/27","12:20",0.0,22.3,50.3,1004.5,273.0,1.8,4.4,242.4,0.54,11.5,19.9,"12:12:00",1
"18/10/27","12:30",0.0,22.2,49.0,1004.3,249.3,2.7,6.3,234.7,0.54,11.0,20.2,"12:20:56",1
"18/10/27","12:40",0.0,22.1,48.4,1004.3,244.2,3.2,6.2,227.3,0.54,10.8,20.2,"12:35:20",1
"18/10/27","12:50",0.0,22.4,45.6,1003.8,236.5,3.1,7.5,200.7,0.49,10.1,20.5,"12:40:32",1
"18/10/27","13:00",0.0,22.4,45.4,1003.6,270.2,2.1,5.4,254.6,0.46,10.1,20.6,"12:51:52",1
"18/10/27","13:10",0.0,22.5,44.4,1003.6,256.4,2.1,5.0,252.5,0.45,9.8,20.9,"13:00:02",1
"18/10/27","13:20",0.0,22.4,45.6,1003.4,235.5,2.0,4.3,222.0,0.43,10.1,21.0,"13:11:20",1
"18/10/27","13:30",0.0,21.9,44.4,1003.1,284.5,1.8,4.2,349.1,0.39,9.3,20.8,"13:27:28",1
"18/10/27","13:40",0.0,22.7,44.7,1003.1,281.6,1.7,3.9,336.9,0.42,10.1,20.9,"13:39:12",1
"18/10/27","13:50",0.0,22.3,47.5,1002.6,288.4,1.8,5.4,231.4,0.38,10.7,21.0,"13:46:56",1
"18/10/27","14:00",0.0,21.9,47.1,1002.9,257.4,2.0,3.5,224.7,0.24,10.2,21.1,"13:59:04",1
"18/10/27","14:10",0.0,22.2,48.4,1002.6,248.9,2.1,4.5,232.0,0.36,10.8,21.2,"14:01:52",1
"18/10/27","14:20",0.0,22.1,48.2,1002.9,258.8,1.7,5.8,231.6,0.36,10.7,21.3,"14:12:24",1
"18/10/27","14:30",0.0,21.8,49.8,1003.1,316.1,1.6,4.7,330.3,0.24,10.9,21.2,"14:20:02",1
"18/10/27","14:40",0.0,22.0,48.4,1003.1,300.4,1.5,2.8,322.2,0.12,10.7,21.2,"14:30:40",1
"18/10/27","14:50",0.0,21.3,53.7,1002.9,300.6,1.6,3.4,329.1,0.14,11.6,21.1,"14:41:04",1
"18/10/27","15:00",0.0,21.3,53.6,1003.1,324.7,2.2,4.3,340.9,0.09,11.6,21.1,"14:59:04",1
"18/10/27","15:10",0.0,21.3,55.5,1003.1,287.2,1.6,3.3,319.0,0.19,12.1,21.0,"15:08:48",1
"18/10/27","15:20",0.0,20.8,59.6,1003.6,322.1,2.8,5.0,318.6,0.21,12.7,21.1,"15:18:40",1
"18/10/27","15:30",0.0,20.0,62.6,1003.6,334.9,3.2,6.3,318.4,0.07,12.7,21.1,"15:23:44",1
"18/10/27","15:40",0.0,19.3,66.0,1003.6,338.4,2.7,5.7,342.8,0.04,12.8,20.7,"15:36:16",1
"18/10/27","15:50",0.0,19.4,66.2,1004.1,339.8,2.6,4.9,347.2,0.07,13.0,20.8,"15:45:28",1
"18/10/27","16:00",0.0,19.0,67.2,1003.8,339.5,3.0,7.0,341.7,0.05,12.8,20.5,"15:56:24",1
"18/10/27","16:10",0.0,18.8,68.0,1004.1,338.7,3.0,5.5,328.0,0.03,12.8,20.5,"16:06:40",1
"18/10/27","16:20",0.0,18.4,68.9,1004.3,338.2,3.1,5.9,334.3,0.03,12.6,20.3,"16:10:48",1
"18/10/27","16:30",0.0,18.2,69.7,1004.1,338.6,3.1,5.4,319.1,0.02,12.6,20.3,"16:22:16",1
"18/10/27","16:40",0.0,18.0,69.5,1004.3,328.1,3.5,6.4,316.6,0.02,12.4,20.0,"16:39:44",1
"18/10/27","16:50",0.0,17.8,69.3,1004.3,323.6,3.7,8.3,345.5,0.01,12.1,19.9,"16:47:12",1
"18/10/27","17:00",0.0,17.7,69.4,1004.5,306.8,2.3,5.1,334.3,0.00,12.1,19.9,"16:56:32",1
"18/10/27","17:10",0.0,17.5,67.4,1004.8,313.8,2.7,5.1,341.3,0.00,11.4,19.6,"17:04:48",1
"18/10/27","17:20",0.0,17.4,63.9,1004.8,316.3,2.2,4.9,325.5,0.00,10.5,19.6,"17:19:44",1
"18/10/27","17:30",0.0,17.2,63.1,1005.2,328.1,3.0,4.8,339.0,0.00,10.2,19.4,"17:24:08",1
"18/10/27","17:40",0.0,17.0,64.1,1005.5,327.9,2.3,4.5,344.8,0.00,10.2,19.3,"17:30:40",1
"18/10/27","17:50",0.0,16.7,65.5,1005.5,307.4,1.3,2.6,313.2,0.00,10.2,19.2,"17:46:16",1
"18/10/27","18:00",0.0,16.5,65.1,1005.5,311.9,1.7,3.1,337.9,0.00,10.0,19.2,"17:52:40",1
"18/10/27","18:10",0.0,16.3,64.5,1005.5,330.8,2.6,4.4,331.3,0.00,9.6,19.0,"18:05:52",1
"18/10/27","18:20",0.0,16.0,65.8,1005.7,316.4,1.8,3.4,332.5,0.00,9.7,18.9,"18:12:56",1
"18/10/27","18:30",0.0,15.8,67.5,1005.7,301.1,1.2,3.1,315.5,0.00,9.8,18.7,"18:27:36",1
"18/10/27","18:40",0.0,15.8,68.4,1006.0,315.6,1.3,2.5,328.4,0.00,10.0,18.8,"18:31:36",1
"18/10/27","18:50",0.0,15.7,69.1,1006.4,324.4,1.3,3.2,305.3,0.00,10.1,18.7,"18:40:24",1
"18/10/27","19:00",0.0,15.6,70.4,1006.2,314.7,1.6,4.1,347.7,0.00,10.3,18.5,"18:56:16",1
"18/10/27","19:10",0.0,15.3,70.6,1006.4,332.4,1.7,3.2,338.9,0.00,10.0,18.5,"19:04:08",1
"18/10/27","19:20",0.0,15.0,71.7,1006.9,331.4,1.2,2.5,335.5,0.00,10.0,18.1,"19:10:24",1
"18/10/27","19:30",0.0,14.3,72.8,1006.7,328.8,1.0,2.0,310.6,0.00,9.5,18.1,"19:24:48",1
"18/10/27","19:40",0.0,13.5,78.2,1006.7,322.2,0.8,1.6,331.9,0.00,9.8,18.1,"19:31:36",1
"18/10/27","19:50",0.0,13.1,81.2,1006.9,326.3,1.5,2.4,331.9,0.00,10.0,18.0,"19:43:26",1
"18/10/27","20:00",0.0,12.7,82.9,1006.7,328.8,1.5,1.9,333.4,0.00,9.9,17.9,"19:55:00",1
"18/10/27","20:10",0.0,12.2,83.9,1006.9,310.0,1.1,1.8,318.4,0.00,9.6,17.8,"20:00:10",1
"18/10/27","20:20",0.0,12.0,85.8,1007.1,334.3,1.5,2.1,308.6,0.00,9.7,17.8,"20:19:16",1
"18/10/27","20:30",0.0,11.8,86.3,1007.4,321.2,1.6,2.4,335.2,0.00,9.6,17.7,"20:21:18",1
"18/10/27","20:40",0.0,11.5,87.3,1007.6,318.4,1.2,1.8,321.4,0.00,9.5,17.3,"20:32:32",1
"18/10/27","20:50",0.0,11.7,87.5,1007.4,328.1,1.5,2.0,325.4,0.00,9.7,17.5,"20:43:10",1
"18/10/27","21:00",0.0,11.9,86.5,1007.6,327.8,1.6,2.1,322.4,0.00,9.8,17.3,"20:55:16",1
"18/10/27","21:10",0.0,12.0,85.1,1007.6,330.3,2.1,2.6,334.9,0.00,9.6,17.2,"21:01:16",1
"18/10/27","21:20",0.0,11.6,85.6,1007.8,315.9,1.5,2.2,329.6,0.00,9.3,17.1,"21:10:18",1
"18/10/27","21:30",0.0,11.5,86.2,1007.4,339.2,1.6,2.6,322.4,0.00,9.3,17.2,"21:26:24",1
"18/10/27","21:40",0.0,11.2,86.7,1008.1,300.8,1.5,2.7,332.1,0.00,9.1,17.1,"21:30:16",1
"18/10/27","21:50",0.0,10.9,87.3,1007.4,313.3,1.5,2.1,321.6,0.00,8.9,17.0,"21:47:52",1
"18/10/27","22:00",0.0,10.7,87.9,1007.4,326.2,1.5,1.9,336.6,0.00,8.8,16.9,"21:51:52",1
"18/10/27","22:10",0.0,10.4,88.8,1007.6,313.5,1.3,1.8,309.1,0.00,8.7,16.9,"22:01:04",1
"18/10/27","22:20",0.0,10.7,89.4,1007.6,327.1,2.0,2.6,326.7,0.00,9.1,16.7,"22:14:56",1
"18/10/27","22:30",0.0,10.7,89.1,1007.6,290.2,1.6,2.5,313.9,0.00,9.0,16.7,"22:20:16",1
"18/10/27","22:40",0.0,10.5,89.3,1007.4,302.6,1.7,2.2,324.8,0.00,8.9,16.6,"22:39:36",1
"18/10/27","22:50",0.0,10.3,89.5,1007.1,293.9,1.5,2.4,320.0,0.00,8.7,16.6,"22:47:36",1
"18/10/27","23:00",0.0,10.2,90.0,1007.1,313.8,1.6,2.0,301.2,0.00,8.7,16.5,"22:50:40",1
"18/10/27","23:10",0.0,9.8,90.0,1007.1,301.2,1.3,1.9,318.7,0.00,8.3,16.4,"23:02:48",1
"18/10/27","23:20",0.0,9.6,91.1,1007.4,296.3,1.1,2.0,310.6,0.00,8.3,16.1,"23:19:36",1
"18/10/27","23:30",0.0,9.8,91.6,1007.4,285.3,1.5,2.1,316.8,0.00,8.5,16.2,"23:20:16",1
"18/10/27","23:40",0.0,10.1,91.3,1007.1,292.9,1.6,2.6,314.5,0.00,8.8,16.1,"23:34:32",1
"18/10/27","23:50",0.0,10.3,91.2,1007.4,318.4,2.0,3.1,340.4,0.00,9.0,16.2,"23:45:04",1
"18/10/27","24:00",0.0,10.5,90.6,1007.1,315.4,2.2,3.9,336.8,0.00,9.1,16.0,"23:58:00",1
